Location: Diebersbach
(48.5163°N, 8.0558°E)
Time: 14:07:10
(UTC+00:00)

FALCON 9 DEB - Pass Details

Date: 20 June 2021
Orbit: 362 x 377 km, 53.0° (Epoch: 04 August)

Event Time Altitude Azimuth Distance (km) Brightness Sun altitude
Rises 02:32:26 0° 294° (WNW) 2,272 6.6 -7.2°
Reaches altitude 10° 02:34:32 10° 289° (WNW) 1,413 5.5 -7.0°
Maximum altitude 02:37:36 49° 213° (SSW) 502 3.1 -6.7°
Drops below altitude 10° 02:40:38 10° 137° (SE) 1,397 5.7 -6.3°
Sets 02:42:42 0° 132° (SE) 2,242 6.8 -6.1°
